[[{"header":{"parameterUnit":"m.s-1","parameterCategory":1,"la1":30.2991,"la2":30.254,"lo1":-89.0895,"lo2":-89.0444,"dy":0.0017,"dx":0.0017,"nx":28,"ny":28,"refTime":"2025-08-23T03:00:00:Z","depth":0,"parameterNumber":2,"parameterNumberName":"U-component_of_WINDS"},"data":[0,0,0,0,0,0,0,0,0,0,0,0,0,0,0,0,0,0,0,0,0,0,0,0,0,0,0,0,0,0,0,0,0,0,0,0,0,0,0,0,0,0,0,0,0,0,0,0,0,0,0,0,0,0,0,0,0,0,4.5259,4.5261,0,4.5422,4.5423,4.5425,4.5363,4.536,4.5356,4.5352,4.5519,4.5527,4.5535,0,0,0,0,0,0,0,0,0,0,0,0,0,4.4896,4.4903,4.5259,4.5261,4.5263,4.5421,4.5424,4.5426,4.5364,4.5359,4.5355,4.5351,4.5517,4.5526,4.5536,0,0,0,0,0,0,0,0,0,0,0,0,0,4.5055,4.4905,4.5259,4.5251,4.5252,4.5421,4.5424,4.5426,4.5365,4.5359,4.5354,4.5349,4.5514,4.5525,4.5537,4.5723,0,0,4.5573,4.5579,0,0,0,0,0,0,0,0,4.5046,4.5069,4.525,4.5252,4.5254,4.5366,4.5357,4.5526,4.5366,4.5322,4.5352,4.5346,4.5473,4.5488,4.5531,4.573,4.5738,4.5574,4.5582,4.5587,4.559,0,0,0,0,0,0,0,4.5035,4.5061,4.5323,4.5253,4.5255,4.524,4.5257,4.5388,4.5427,4.5326,4.5322,4.5342,4.5473,4.5519,4.5534,4.574,4.5574,4.5585,4.5592,4.5597,4.6099,4.6105,0,0,0,0,0,0,4.5024,4.5053,4.5318,4.5328,4.5134,4.5251,4.527,4.5336,4.5426,4.5434,4.5346,4.5338,4.5502,4.552,4.554,4.5762,4.5587,4.5598,4.5605,4.6093,4.6101,4.6107,0,0,0,0,0,0,4.5016,4.5048,4.5312,4.5189,4.5222,4.5263,4.5338,4.5342,4.5388,4.5441,4.5448,4.5387,4.5498,4.5523,4.5677,4.5767,4.5603,4.5614,4.6086,4.6095,4.6104,4.6209,0,0,0,0,0,0,4.5006,4.5046,4.5116,4.5191,4.5229,4.5447,4.5344,4.5349,4.5409,4.54,4.5481,4.5489,4.5496,4.566,4.5689,4.578,4.5623,4.6078,4.609,4.6101,4.6197,4.622,4.624,0,0,0,0,0,4.4993,4.514,4.512,4.5153,4.5318,4.5452,4.5473,4.5478,4.5417,4.5488,4.5522,4.5486,4.5753,4.5676,4.5709,4.5805,4.6072,4.6087,4.61,4.6188,4.6216,4.624,0,0,0,0,0,0,4.5074,4.5149,4.5129,4.5304,4.5372,4.5441,4.5531,4.5508,4.5595,4.5583,4.5585,4.5604,4.5763,4.5799,4.5713,4.5989,4.5903,4.5925,4.5959,4.5986,4.6007,4.5994,4.5633,0,0,0,0,0,4.5113,4.5215,4.5275,4.5424,4.5459,4.549,4.5548,4.5546,4.5617,4.5645,4.569,4.576,4.586,4.5925,4.602,4.6203,4.6219,4.6285,4.6306,4.6324,4.6342,4.644,4.647,4.6153,4.6153,4.6153,0,0,4.5193,4.5246,4.5311,4.5442,4.5494,4.56,4.5514,4.563,4.5708,4.5663,4.5811,4.5847,4.5925,4.6094,4.6171,4.613,4.6433,4.6342,4.6355,4.6364,4.6458,4.6488,4.6514,4.6163,4.6161,4.616,0,0,4.5392,4.5444,4.5573,4.5627,4.5707,4.5727,4.5758,4.5831,4.5853,4.6002,4.5969,4.6063,4.6235,4.6291,4.6343,4.6565,4.6535,4.6596,4.6707,4.6803,4.6828,4.685,4.6928,4.6956,4.6613,4.6614,4.6614,0,4.5481,4.5639,4.5642,4.576,4.5818,4.5782,4.5913,4.5966,4.6073,4.6114,4.6066,4.628,4.6331,4.6512,4.6566,4.661,4.6645,4.6585,4.6824,4.6846,4.6867,4.6941,4.6971,4.662,4.662,4.6619,4.6618,0,4.5744,4.5855,4.5949,4.6053,4.6123,4.6247,4.6268,4.6338,4.633,4.6355,4.6506,4.6565,4.6671,4.6714,4.6708,4.6896,4.6867,4.6822,4.6736,4.6904,4.6974,4.7002,4.663,4.6628,4.6626,4.6624,0,0,4.5999,4.6103,4.6138,4.6184,4.627,4.6356,4.6478,4.6581,4.664,4.6716,4.6818,4.6964,4.6923,4.6982,4.6982,4.7067,4.7237,4.7011,4.7013,4.705,4.7446,4.7478,4.7511,4.7218,4.7224,4.7228,4.7439,0,4.6204,4.6418,4.6424,4.662,4.6722,4.6689,4.6795,4.686,4.6887,4.6976,4.7006,4.7109,4.7047,4.7082,4.7165,4.7199,4.7316,4.7184,4.7313,4.7317,4.7293,4.7548,4.7582,4.7778,4.7466,4.7471,4.7474,0,4.6472,4.6555,4.6761,4.6833,4.6875,4.6971,4.7065,4.7152,4.7225,4.7238,4.7304,4.7291,4.7416,4.7327,4.7499,4.7409,4.7462,4.7487,4.7495,4.7506,4.7405,4.7564,4.7841,4.787,4.7518,4.7514,4.7511,0,4.6635,4.6799,4.6943,4.6984,4.7072,4.7139,4.7179,4.7246,4.7307,4.739,4.743,4.7527,4.758,4.7655,4.7669,4.7603,4.7841,4.7754,4.7855,4.7855,4.7905,4.7902,4.8193,4.7943,4.7942,4.7942,4.7941,0,4.6862,4.6989,4.7017,4.7106,4.7247,4.7254,4.7393,4.7428,4.7488,4.7582,4.7561,4.765,4.7664,4.7757,4.7769,4.7909,4.7933,4.7947,4.7948,4.7948,4.7946,4.7982,4.7968,4.795,4.7948,4.7946,4.7945,0,4.7068,4.7092,4.7247,4.7317,4.7337,4.7438,4.7498,4.7583,4.7607,4.7727,4.7755,4.7794,4.7902,4.7923,4.8052,4.806,4.8226,4.8214,4.8201,4.8199,4.8299,4.8289,4.8622,4.8666,4.8389,4.8391,4.8393,0,4.7211,4.7308,4.7388,4.7449,4.7492,4.7592,4.7654,4.7665,4.773,4.782,4.7894,4.8,4.8085,4.8259,4.8298,4.8396,4.8386,4.8496,4.84,4.8397,4.8386,4.8379,4.8388,4.8514,4.8517,4.8519,4.8521,0,4.7462,4.7469,4.7559,4.7655,4.773,4.7805,4.7877,4.7929,4.7948,4.8024,4.8134,4.8199,4.833,4.8435,4.8532,4.8573,4.8551,4.8551,4.858,4.8579,4.8567,4.8574,4.8249,4.8543,4.8541,4.8539,4.8538,4.8537,4.7639,4.7723,4.7793,4.7894,4.7949,4.8017,4.81,4.8134,4.8226,4.8332,4.8333,4.8453,4.8523,4.8652,4.8699,4.8793,4.8758,4.88,4.881,4.882,4.8828,4.8554,4.8811,4.8811,4.881,4.881,4.8809,0,4.7887,4.7931,4.8024,4.8125,4.8205,4.8177,4.8255,4.8324,4.8429,4.8496,4.858,4.8706,4.8808,4.8856,4.8956,4.9022,4.9014,4.9048,4.9042,4.9052,4.8854,4.8819,4.9052,4.9052,4.9052,4.9052,4.9052,4.9052,4.8026,4.8166,4.8182,4.835,4.8392,4.8509,4.8555,4.8618,4.8671,4.8813,4.8897,4.8927,4.8986,4.9091,4.9183,4.9194,4.9232,4.927,4.9276,4.9091,4.9066,4.9042,4.9009,4.9278,4.9279,4.9466,4.9467,4.9469]},{"header":{"parameterUnit":"m.s-1","parameterCategory":1,"la1":30.2991,"la2":30.254,"lo1":-89.0895,"lo2":-89.0444,"dy":0.0017,"dx":0.0017,"nx":28,"ny":28,"refTime":"2025-08-23T03:00:00:Z","depth":0,"parameterNumber":3,"parameterNumberName":"V-component_of_WINDS"},"data":[0,0,0,0,0,0,0,0,0,0,0,0,0,0,0,0,0,0,0,0,0,0,0,0,0,0,0,0,0,0,0,0,0,0,0,0,0,0,0,0,0,0,0,0,0,0,0,0,0,0,0,0,0,0,0,0,0,0,0.7553,0.7554,0,0.7623,0.7624,0.7625,0.7592,0.759,0.7588,0.7586,0.7664,0.7668,0.7672,0,0,0,0,0,0,0,0,0,0,0,0,0,0.7397,0.74,0.7553,0.7554,0.7555,0.7623,0.7624,0.7625,0.7592,0.759,0.7588,0.7585,0.7663,0.7668,0.7672,0,0,0,0,0,0,0,0,0,0,0,0,0,0.7466,0.7401,0.7553,0.7547,0.7547,0.7623,0.7624,0.7625,0.7592,0.759,0.7587,0.7584,0.7662,0.7667,0.7673,0.7761,0,0,0.769,0.7692,0,0,0,0,0,0,0,0,0.7462,0.7471,0.7547,0.7547,0.7547,0.7596,0.7597,0.7671,0.7593,0.7575,0.7586,0.7583,0.7644,0.7651,0.767,0.7765,0.7768,0.769,0.7694,0.7696,0.7698,0,0,0,0,0,0,0,0.7457,0.7468,0.7581,0.7548,0.7548,0.7542,0.7549,0.7611,0.7624,0.7577,0.7574,0.7583,0.7644,0.7665,0.7672,0.7769,0.769,0.7695,0.7699,0.7701,0.794,0.7942,0,0,0,0,0,0,0.7452,0.7464,0.7579,0.7583,0.7497,0.7547,0.7554,0.7583,0.7623,0.7627,0.7585,0.7581,0.7657,0.7665,0.7674,0.7781,0.7696,0.7701,0.7705,0.7937,0.794,0.7943,0,0,0,0,0,0,0.7448,0.7462,0.7576,0.7523,0.7537,0.7552,0.7585,0.7586,0.7607,0.7629,0.7632,0.7604,0.7655,0.7666,0.7739,0.7783,0.7704,0.7709,0.7933,0.7938,0.7942,0.7994,0,0,0,0,0,0,0.7444,0.7461,0.7494,0.7524,0.754,0.7638,0.7587,0.7589,0.7616,0.7611,0.7648,0.7651,0.7654,0.7731,0.7745,0.7789,0.7713,0.7929,0.7935,0.794,0.7988,0.7999,0.8009,0,0,0,0,0,0.7438,0.7507,0.7496,0.751,0.7581,0.7641,0.765,0.7649,0.7619,0.7653,0.7667,0.765,0.7775,0.7739,0.7754,0.7801,0.7927,0.7933,0.794,0.7984,0.7997,0.8009,0,0,0,0,0,0,0.7485,0.7511,0.7499,0.7579,0.7607,0.7635,0.7678,0.7664,0.7704,0.7698,0.7697,0.7706,0.7781,0.7798,0.7757,0.7888,0.7847,0.7857,0.7875,0.7888,0.7898,0.7893,0.7718,0,0,0,0,0,0.7503,0.7548,0.757,0.7638,0.7653,0.7663,0.7689,0.7686,0.7716,0.7729,0.7749,0.7781,0.7827,0.7858,0.7902,0.799,0.7998,0.8029,0.804,0.8048,0.8058,0.8105,0.812,0.7965,0.7965,0.7965,0,0,0.7544,0.7564,0.7593,0.7648,0.767,0.7718,0.7674,0.7726,0.7762,0.7738,0.7807,0.7823,0.7858,0.7939,0.7975,0.7955,0.8102,0.8057,0.8063,0.8068,0.8114,0.8128,0.8141,0.797,0.7969,0.7968,0,0,0.7643,0.7662,0.7721,0.7743,0.7776,0.7781,0.7796,0.7825,0.7834,0.7902,0.7885,0.7928,0.8008,0.8034,0.8058,0.8165,0.8151,0.8179,0.8234,0.8281,0.8293,0.8304,0.8342,0.8356,0.8188,0.8188,0.8188,0,0.769,0.776,0.7754,0.7807,0.7833,0.7809,0.787,0.7893,0.7939,0.7958,0.7934,0.8033,0.8055,0.8141,0.8167,0.8187,0.8204,0.8176,0.8291,0.8302,0.8312,0.8349,0.8364,0.8191,0.8191,0.8191,0.819,0,0.7816,0.7865,0.7909,0.7951,0.7981,0.8038,0.8043,0.8074,0.8067,0.8076,0.8147,0.8172,0.8221,0.8241,0.8236,0.8327,0.8313,0.829,0.8249,0.833,0.8365,0.8379,0.8196,0.8195,0.8194,0.8193,0,0,0.7948,0.7985,0.8001,0.802,0.8053,0.8092,0.8148,0.8193,0.822,0.8252,0.83,0.8367,0.8346,0.8373,0.8371,0.8411,0.8494,0.8383,0.8384,0.8404,0.8596,0.8614,0.8631,0.8484,0.8487,0.8489,0.8594,0,0.805,0.8146,0.8142,0.8232,0.8277,0.8255,0.8304,0.8331,0.834,0.8381,0.8391,0.8439,0.8407,0.8423,0.8462,0.8476,0.8533,0.8468,0.8531,0.8533,0.8524,0.8649,0.8668,0.8766,0.8607,0.8609,0.8611,0,0.8182,0.8216,0.831,0.8336,0.8355,0.8399,0.8439,0.8478,0.8508,0.8512,0.854,0.8531,0.8589,0.8545,0.8625,0.8581,0.8606,0.8617,0.8621,0.8628,0.8578,0.8661,0.8797,0.8812,0.8632,0.8631,0.8629,0,0.827,0.8339,0.8404,0.8421,0.8452,0.8484,0.8499,0.8526,0.8553,0.8589,0.8606,0.8649,0.8674,0.8708,0.8711,0.8678,0.8793,0.8748,0.8799,0.8799,0.8826,0.8825,0.897,0.884,0.884,0.884,0.8839,0,0.8385,0.8444,0.8444,0.8485,0.855,0.8545,0.861,0.8622,0.8646,0.869,0.8673,0.8715,0.8715,0.8758,0.8761,0.8828,0.8839,0.8845,0.8846,0.8848,0.8847,0.8866,0.8859,0.8843,0.8843,0.8842,0.8841,0,0.8495,0.8497,0.8567,0.859,0.8597,0.8644,0.8665,0.8704,0.871,0.8766,0.8778,0.879,0.8839,0.8845,0.8903,0.8905,0.8986,0.8979,0.8976,0.8975,0.9026,0.9022,0.9189,0.9211,0.9066,0.9067,0.9068,0,0.8568,0.8613,0.864,0.8666,0.8682,0.8726,0.8753,0.8749,0.8778,0.8814,0.8849,0.8896,0.8934,0.9014,0.9029,0.9074,0.9068,0.9124,0.9075,0.9075,0.907,0.9068,0.9073,0.9134,0.9135,0.9137,0.9138,0,0.87,0.8698,0.8736,0.8775,0.8806,0.8837,0.8866,0.8889,0.8889,0.8923,0.8972,0.9001,0.9059,0.9106,0.915,0.9167,0.9154,0.9152,0.9167,0.917,0.9167,0.9171,0.9003,0.9149,0.9148,0.9147,0.9147,0.9146,0.8795,0.8833,0.8857,0.89,0.8921,0.8948,0.8985,0.8995,0.9035,0.9081,0.9076,0.9131,0.9159,0.9216,0.9236,0.9279,0.9261,0.9282,0.9288,0.9293,0.9299,0.9158,0.9287,0.9287,0.9287,0.9286,0.9286,0,0.8926,0.8939,0.8979,0.9018,0.9052,0.9033,0.9064,0.9094,0.9141,0.9168,0.9204,0.9261,0.9306,0.9324,0.9368,0.94,0.9395,0.9412,0.9411,0.9415,0.9312,0.9295,0.9416,0.9416,0.9416,0.9416,0.9416,0.9416,0.8998,0.9062,0.9063,0.9137,0.9151,0.9202,0.9221,0.9247,0.9267,0.933,0.9367,0.9377,0.94,0.9446,0.9488,0.9492,0.951,0.953,0.9532,0.9436,0.9423,0.941,0.9395,0.9534,0.9534,0.9632,0.9633,0.9633]}]]